CAPE
6 0 0 0 0 0 0 0 0 0 0 0 0 0 0 0 0 0 0 151 359 689 1516 1723 2083 2054 2078 2084 1819 1377 1106 783 359 123 44 5 5 3 9 11 24 9 1 7 90 90 75 69 17
0 0 0 0 0 0 0 0 0 0 0 0 0 0 0 0 15 67 202 303 626 961 1322 1394 2035 2106 2099 1946 1424 1147 863 664 276 77 39 6 5 6 7 2 34 65 0 4 50 84 61 26 0
0 0 0 0 0 0 0 0 0 0 0 0 0 0 0 0 7 78 98 649 817 997 1070 1326 1958 1997 1864 1688 1476 1024 799 553 284 104 10 4 4 3 4 18 102 73 38 10 61 70 19 0 0
0 0 0 0 0 0 0 0 0 0 0 0 0 0 0 0 57 73 592 846 779 749 794 1454 1812 1896 1829 1667 1421 981 720 562 377 100 20 3 6 3 11 32 33 107 89 79 25 0 0 0 0
0 0 0 0 0 0 0 0 0 0 0 0 0 0 0 0 74 562 891 885 806 620 797 1210 1660 1704 1545 1253 1270 1186 954 699 403 143 36 11 9 6 11 10 44 16 15 7 0 0 0 0 0
0 0 0 0 0 0 0 0 0 0 0 0 0 0 0 153 503 754 739 749 662 712 850 983 1191 1236 1364 1303 1162 1141 1099 921 516 276 56 42 8 3 5 11 26 38 15 1 8 2 2 1 0
0 0 0 0 0 0 0 0 0 0 0 0 0 0 0 290 575 722 626 593 500 588 634 781 742 819 877 903 805 746 760 880 804 470 133 53 16 1 0 4 2 3 15 4 0 0 0 0 0
0 0 0 0 0 0 0 0 0 0 0 0 0 0 0 0 642 523 477 451 438 452 538 489 416 463 414 421 484 436 410 474 659 501 156 43 3 0 1 3 8 4 5 1 0 0 0 0 0
0 0 0 0 0 0 0 0 0 0 0 0 0 0 0 233 588 598 629 539 450 448 559 510 277 197 131 105 148 237 225 219 202 171 46 0 0 0 0 0 11 38 2 0 0 0 6 8 0
0 0 0 0 0 0 0 0 0 0 0 0 0 0 0 569 737 582 517 567 562 408 445 426 205 104 63 87 50 20 64 48 56 16 0 0 0 0 0 0 14 74 55 45 12 37 72 0 0
0 0 0 0 0 0 0 0 0 0 0 0 0 0 0 465 653 691 677 643 553 424 374 356 173 74 59 70 3 0 0 0 0 0 0 0 0 0 0 0 1 1 25 3 15 16 0 0 0
0 0 0 0 0 0 0 0 0 0 0 0 0 0 0 13 439 586 567 610 566 514 408 290 171 83 47 14 0 0 0 0 0 0 0 0 0 0 0 0 0 0 0 0 0 0 0 0 0
0 0 0 0 0 0 0 0 0 0 0 0 0 0 0 0 0 0 317 499 525 449 407 284 176 112 62 31 0 0 0 0 0 0 0 0 0 0 0 0 0 0 0 0 0 0 0 0 0
0 0 0 0 0 0 0 0 0 0 0 0 0 0 0 0 0 0 0 238 421 480 432 298 198 140 65 52 7 0 0 0 0 0 0 0 0 0 0 0 0 0 0 0 0 0 0 0 0
0 0 0 0 0 0 0 0 0 0 0 0 0 0 0 0 0 0 0 0 211 483 461 402 324 90 65 63 28 3 0 0 0 0 0 0 0 0 0 0 0 0 0 0 0 0 0 0 0
1 0 0 0 0 0 0 0 0 0 0 0 0 0 0 0 0 0 0 0 0 38 406 422 508 257 74 76 39 9 0 0 0 0 0 0 0 0 0 0 0 0 0 0 0 0 0 0 0
0 0 0 0 0 0 0 0 0 0 0 0 0 0 0 0 0 0 0 0 0 0 0 246 448 480 138 112 58 24 2 0 0 0 0 0 0 0 0 0 0 0 0 0 0 0 0 0 0
1 2 0 0 0 0 0 0 0 0 0 0 0 0 0 0 0 0 0 0 0 0 0 0 351 580 290 163 106 48 19 0 0 0 0 0 0 0 0 0 0 0 0 0 0 0 0 0 0
0 0 0 0 0 0 0 0 0 0 0 0 0 0 0 0 0 0 0 0 0 0 0 0 0 407 401 278 326 228 144 32 0 0 0 0 0 0 0 0 0 0 0 0 0 0 0 0 0
0 0 0 0 0 0 0 0 0 0 0 0 0 0 0 0 0 0 0 0 0 0 0 0 0 4 349 372 450 449 358 135 31 0 0 0 0 0 0 0 0 0 0 0 0 0 0 0 0
0 0 0 0 0 0 0 0 0 0 0 0 0 0 0 0 0 0 0 0 0 0 0 0 0 0 109 402 358 0 14 0 1 0 0 0 0 0 0 0 0 0 0 0 0 0 0 0 0
12 0 0 0 0 0 0 0 0 0 0 0 0 0 0 0 0 0 0 0 0 0 0 0 0 0 0 176 281 264 285 214 48 55 0 0 0 0 0 0 0 0 0 0 0 0 0 0 0
1 0 0 0 0 0 0 0 0 0 0 0 0 0 0 0 0 0 0 0 0 0 0 0 0 0 0 0 151 127 137 165 0 0 0 0 0 0 0 0 0 0 0 0 0 0 0 0 0
0 0 0 0 0 0 0 0 0 0 0 0 0 0 0 0 0 0 0 0 0 0 0 0 0 0 0 0 0 34 69 0 0 1 1 0 0 0 0 0 0 0 0 0 0 0 0 0 0
0 0 0 0 0 0 0 0 0 0 0 0 0 0 0 0 0 0 0 0 0 0 0 0 0 0 0 0 0 0 23 0 0 0 0 0 0 0 0 0 0 0 0 0 0 0 0 0 0
0 0 0 0 0 0 0 0 0 0 0 0 0 0 0 0 0 0 0 0 0 0 0 0 0 0 0 0 0 0 0 0 0 0 0 0 0 0 0 0 0 0 0 0 0 0 0 0 0
0 0 0 0 0 0 0 0 0 0 0 0 0 0 0 0 0 0 0 0 0 0 0 0 0 0 0 0 0 0 0 0 0 0 0 0 0 0 0 0 0 0 0 0 0 0 0 0 0
0 0 0 0 0 0 0 0 0 0 0 0 0 0 0 0 0 0 0 0 0 0 0 0 0 0 0 0 0 0 0 0 0 0 0 0 0 0 0 0 0 0 0 0 0 0 0 0 0
0 0 0 0 0 0 0 0 0 0 0 0 0 0 0 0 0 0 0 0 0 0 0 0 0 0 0 0 0 0 0 0 0 0 0 0 0 0 0 0 0 0 0 0 0 0 0 0 0
0 0 0 0 0 0 0 0 0 0 0 0 0 0 0 0 0 0 0 0 0 0 0 0 0 0 0 0 0 0 0 0 0 0 0 0 0 0 0 0 0 0 0 0 0 0 0 0 0
CIN
-23 0 0 0 0 0 0 0 0 0 0 0 0 0 0 0 0 0 0 -437 -392 -269 -119 -83 -51 -41 -36 -26 -24 -30 -34 -37 -56 -108 -140 0 0 -0 0 0 -0 0 0 -0 -66 0 -0 -1 -2
0 0 0 0 0 0 0 0 0 0 0 0 0 0 0 0 -376 -450 -399 -383 -293 -202 -129 -104 -51 -44 -39 -33 -45 -47 -53 -52 -79 -118 -145 -0 -0 -0 -0 -0 -46 -45 0 0 -0 -0 -1 -3 0
0 0 0 0 0 0 0 0 0 0 0 0 0 0 0 0 -156 -463 -495 -312 -245 -179 -152 -106 -55 -40 -39 -45 -46 -60 -64 -72 -102 -125 -13 -0 0 -0 -0 -0 -70 -86 -80 0 -29 -25 -11 0 0
0 0 0 0 0 0 0 0 0 0 0 0 0 0 0 0 -351 -476 -340 -250 -235 -220 -195 -77 -48 -36 -38 -43 -44 -66 -77 -84 -98 -160 -224 -2 0 -0 0 -41 -157 -72 -62 -64 -4 -1 0 0 0
0 0 0 0 0 0 0 0 0 0 0 0 0 0 0 0 -456 -313 -234 -221 -221 -235 -167 -90 -50 -42 -51 -68 -60 -53 -56 -74 -106 -157 -238 -65 0 0 -0 -0 -174 -167 -130 -77 0 0 0 0 0
0 0 0 0 0 0 0 0 0 0 0 0 0 0 0 -125 -281 -226 -217 -191 -219 -198 -147 -107 -71 -68 -60 -68 -72 -63 -55 -63 -102 -136 -229 -261 -85 0 0 -0 -237 -183 -185 0 -83 0 0 0 -0
0 0 0 0 0 0 0 0 0 0 0 0 0 0 0 -226 -244 -221 -222 -204 -213 -196 -179 -133 -130 -106 -106 -104 -108 -101 -91 -69 -68 -112 -194 -250 -241 0 -0 0 0 -54 -218 -145 0 0 0 0 0
0 0 0 0 0 0 0 0 0 0 0 0 0 0 0 0 -238 -253 -246 -232 -217 -210 -184 -191 -210 -199 -214 -201 -166 -161 -156 -129 -90 -118 -197 -270 -176 0 0 -0 -134 -2 -0 0 0 0 0 -3 0
0 0 0 0 0 0 0 0 0 0 0 0 0 0 0 -357 -236 -217 -182 -181 -202 -194 -161 -173 -260 -313 -364 -374 -310 -240 -229 -212 -213 -220 -294 0 0 0 0 0 -144 -211 0 0 0 0 -63 -96 0
0 0 0 0 0 0 0 0 0 0 0 0 0 0 0 -231 -192 -240 -239 -209 -188 -223 -205 -214 -290 -358 -413 -386 -441 -460 -380 -384 -362 -393 0 0 0 0 0 0 -275 -185 -175 -162 -104 -140 -111 0 0
0 0 0 0 0 0 0 0 0 0 0 0 0 0 0 -192 -168 -196 -194 -194 -199 -205 -222 -230 -283 -381 -412 -389 -541 -32 0 0 -43 0 0 0 0 0 0 0 -50 -44 -244 -32 -99 -18 0 0 0
0 0 0 0 0 0 0 0 0 0 0 0 0 0 0 -211 -177 -178 -203 -192 -193 -202 -217 -239 -278 -356 -421 -472 0 0 0 0 0 0 0 0 0 0 0 0 0 0 0 0 0 0 0 0 0
0 0 0 0 0 0 0 0 0 0 0 0 0 0 0 0 0 0 -189 -158 -170 -204 -218 -240 -283 -312 -369 -423 0 0 0 0 0 0 0 0 0 0 0 0 0 0 0 0 0 0 0 0 0
0 0 0 0 0 0 0 0 0 0 0 0 0 0 0 0 0 0 0 -207 -193 -195 -210 -237 -305 -292 -312 -317 -176 0 0 0 0 0 0 0 0 0 0 0 0 0 0 0 0 0 0 0 0
0 0 0 0 0 0 0 0 0 0 0 0 0 0 0 0 0 0 0 0 -252 -204 -185 -202 -209 -261 -271 -281 -351 -148 0 0 0 0 0 0 0 0 0 0 0 0 0 0 0 0 0 0 0
-4 0 0 0 0 0 0 0 0 0 0 0 0 0 0 0 0 0 0 0 0 -198 -173 -172 -142 -191 -235 -251 -301 -342 0 0 0 0 0 0 0 0 0 0 0 0 0 0 0 0 0 0 0
-1 -1 0 0 0 0 0 0 0 0 0 0 0 0 0 0 0 0 0 0 0 0 0 -168 -128 -132 -204 -231 -235 -279 -39 0 0 0 0 0 0 0 0 0 0 0 0 0 0 0 0 0 0
-1 -1 0 0 0 0 0 0 0 0 0 0 0 0 0 0 0 0 0 0 0 0 0 0 -139 -113 -162 -179 -166 -200 -246 0 0 0 0 0 0 0 0 0 0 0 0 0 0 0 0 0 0
0 0 0 0 0 0 0 0 0 0 0 0 0 0 0 0 0 0 0 0 0 0 0 0 -0 -149 -117 -138 -116 -140 -184 -239 0 0 0 0 0 0 0 0 0 0 0 0 0 0 0 0 0
0 0 0 0 0 0 0 0 0 0 0 0 0 0 0 0 0 0 0 0 0 0 0 0 0 -93 -144 -131 -144 -102 -145 -188 -246 0 0 0 0 0 0 0 0 0 0 0 0 0 0 0 0
0 0 0 0 0 0 0 0 0 0 0 0 0 0 0 0 0 0 0 0 0 0 0 0 0 0 -246 -122 -134 0 -102 0 0 0 0 0 0 0 0 0 0 0 0 0 0 0 0 0 0
-1 0 0 0 0 0 0 0 0 0 0 0 0 0 0 0 0 0 0 0 0 0 0 0 0 0 0 -135 -98 -121 -126 -149 -251 -232 0 0 0 0 0 0 0 0 0 0 0 0 0 0 0
0 0 0 0 0 0 0 0 0 0 0 0 0 0 0 0 0 0 0 0 0 0 0 0 0 0 0 0 -157 -173 -170 -199 0 0 0 0 0 0 0 0 0 0 0 0 0 0 0 0 0
0 0 0 0 0 0 0 0 0 0 0 0 0 0 0 0 0 0 0 0 0 0 0 0 0 0 0 0 0 -240 -240 0 0 0 0 0 0 0 0 0 0 0 0 0 0 0 0 0 0
0 0 0 0 0 0 0 0 0 0 0 0 0 0 0 0 0 0 0 0 0 0 0 0 0 0 0 0 0 0 -230 0 0 0 0 0 0 0 0 0 0 0 0 0 0 0 0 0 0
0 0 0 0 0 0 0 0 0 0 0 0 0 0 0 0 0 0 0 0 0 0 0 0 0 0 0 0 0 0 0 0 0 0 0 0 0 0 0 0 0 0 0 0 0 0 0 0 0
0 0 0 0 0 0 0 0 0 0 0 0 0 0 0 0 0 0 0 0 0 0 0 0 0 0 0 0 0 0 0 0 0 0 0 0 0 0 0 0 0 0 0 0 0 0 0 0 0
0 0 0 0 0 0 0 0 0 0 0 0 0 0 0 0 0 0 0 0 0 0 0 0 0 0 0 0 0 0 0 0 0 0 0 0 0 0 0 0 0 0 0 0 0 0 0 0 0
0 0 0 0 0 0 0 0 0 0 0 0 0 0 0 0 0 0 0 0 0 0 0 0 0 0 0 0 0 0 0 0 0 0 0 0 0 0 0 0 0 0 0 0 0 0 0 0 0
0 0 0 0 0 0 0 0 0 0 0 0 0 0 0 0 0 0 0 0 0 0 0 0 0 0 0 0 0 0 0 0 0 0 0 0 0 0 0 0 0 0 0 0 0 0 0 0 0
Wind_Speed
2 3 3 5 4 5 3 7 3 3 2 2 1 3 5 1 5 6 1 5 9 12 9 13 16 15 14 14 16 15 15 15 15 15 12 10 10 9 10 7 7 9 8 8 12 12 12 13 10
1 3 5 3 5 2 6 5 8 6 3 9 2 3 2 3 2 3 6 5 12 12 9 10 16 15 15 15 16 17 17 15 14 14 11 10 9 9 9 7 4 12 11 10 8 12 14 11 9
2 4 4 5 4 7 6 6 8 3 6 3 5 1 1 3 1 7 1 11 12 10 9 9 15 15 14 15 17 16 15 14 13 13 11 9 8 8 9 8 10 10 12 8 10 13 14 10 10
3 4 4 4 8 7 8 3 4 4 4 2 2 5 4 3 4 6 9 12 10 7 7 12 15 15 14 15 15 15 15 15 14 13 12 10 10 10 11 10 11 13 13 14 13 11 11 9 9
4 3 3 3 8 5 4 5 3 3 2 1 3 6 3 4 3 10 12 11 15 8 6 8 14 14 14 14 14 13 14 15 15 14 12 10 11 11 12 10 9 8 10 10 10 9 8 7 7
3 3 2 10 7 4 3 5 2 3 3 5 2 2 4 2 6 12 14 13 13 12 9 8 11 12 14 14 13 12 12 15 15 14 12 11 11 11 11 10 9 9 8 7 7 6 7 7 6
5 4 6 5 15 5 5 7 6 6 2 7 2 3 3 2 6 13 12 12 10 7 7 6 6 8 11 12 11 10 9 11 13 13 12 10 10 11 11 11 10 10 9 7 7 6 6 6 6
4 4 6 5 6 7 5 6 5 8 8 1 6 6 5 4 13 10 9 8 7 6 6 6 5 6 6 6 10 9 8 8 10 12 10 9 9 9 10 9 9 10 9 8 7 7 6 6 6
3 2 5 8 8 4 3 6 3 1 2 2 5 3 2 12 13 11 10 6 7 6 7 7 6 6 6 6 5 9 9 9 10 9 10 8 4 5 6 6 6 7 8 8 7 6 6 8 8
5 5 9 6 5 4 5 3 1 1 3 2 1 6 4 14 15 17 16 13 12 15 13 9 6 6 5 5 5 5 5 4 4 5 6 5 5 4 4 5 6 6 6 6 6 6 7 7 4
5 5 4 3 4 2 3 1 2 2 3 3 1 5 3 10 13 14 14 14 14 11 10 11 9 6 6 5 3 2 2 3 3 6 6 5 4 3 3 2 2 2 3 1 3 4 3 4 3
4 7 3 5 1 1 3 1 1 4 5 5 3 2 2 3 7 11 13 14 15 16 15 12 11 7 6 4 4 4 3 3 3 4 6 4 3 4 3 2 3 3 2 3 3 2 3 4 5
8 2 8 8 4 2 2 5 6 6 9 6 3 1 3 2 5 2 4 5 10 14 15 14 13 10 8 6 4 4 4 5 5 5 5 5 4 4 4 4 3 3 2 2 3 3 4 4 5
6 12 7 4 4 3 5 5 7 5 6 6 5 7 5 4 5 3 6 7 10 10 14 14 14 10 8 7 8 7 6 5 4 4 5 6 5 4 4 4 4 4 3 3 4 4 4 3 3
3 4 6 15 4 5 5 8 8 9 6 7 7 8 7 8 6 8 7 8 10 10 9 12 11 11 10 11 8 7 6 6 5 5 6 7 7 6 6 4 4 4 4 5 4 4 4 4 3
9 2 3 4 10 6 8 9 5 8 8 11 10 7 8 11 8 8 9 8 6 6 11 12 11 12 12 12 9 7 6 7 6 6 6 9 8 7 5 5 4 4 4 4 4 4 4 3 3
5 5 6 5 8 7 10 1 2 2 4 9 9 8 9 10 9 12 7 8 8 8 8 11 12 14 14 13 9 8 8 8 7 7 7 10 10 10 7 6 5 6 5 4 5 2 3 3 2
12 7 4 7 2 4 4 5 7 8 5 8 9 10 8 8 13 10 7 8 8 8 8 8 10 13 14 9 8 7 6 7 7 8 8 10 10 10 8 6 6 6 5 5 4 4 2 3 4
8 8 5 3 1 1 4 5 9 8 5 7 10 13 11 9 12 7 9 9 7 7 8 8 8 12 9 9 10 9 10 9 8 8 11 11 10 10 10 6 6 7 8 9 8 4 5 2 3
11 7 6 2 1 1 4 7 13 9 8 10 13 13 14 8 6 8 8 6 8 7 9 9 9 11 11 9 11 8 10 9 9 8 9 9 9 11 11 10 9 9 6 7 8 6 4 3 4
4 7 5 5 2 3 5 7 7 3 4 5 8 9 7 8 8 6 7 8 6 8 8 8 9 10 12 14 8 3 3 2 3 5 8 10 11 11 11 11 9 9 9 9 10 7 6 4 1
5 4 5 6 4 2 2 5 7 3 6 6 8 5 7 7 5 4 6 7 5 8 6 7 8 9 8 11 10 15 12 12 10 11 11 8 13 13 11 11 11 10 7 8 8 7 5 5 4
3 3 4 4 5 3 1 3 8 3 5 7 8 8 8 8 7 7 6 4 4 5 4 4 3 7 8 8 11 12 12 9 3 3 8 6 9 12 11 10 10 9 7 8 10 10 9 5 5
9 10 7 4 3 2 3 4 5 2 2 2 4 5 6 6 5 5 4 5 7 7 8 6 2 3 6 7 8 13 14 8 5 4 6 5 6 7 9 10 9 9 9 10 9 7 8 6 6
3 6 4 4 3 4 1 2 6 5 3 5 3 6 6 6 7 8 10 9 8 8 7 6 7 6 5 4 6 10 12 11 12 11 8 8 6 5 11 12 11 10 10 9 9 8 6 5 3
3 4 6 6 4 3 0 6 4 4 4 4 1 4 5 9 8 8 8 7 7 7 7 7 8 7 6 5 6 6 7 6 7 8 7 8 8 8 10 9 9 9 10 8 7 5 4 5 5
3 2 3 7 4 3 3 5 4 1 4 2 4 6 7 7 7 7 7 7 8 9 8 7 7 7 5 5 6 7 6 7 9 7 5 5 5 5 9 11 12 11 11 11 10 6 6 6 5
3 7 4 3 3 3 4 5 5 6 5 1 8 7 6 5 6 6 6 6 6 7 8 9 8 8 9 6 6 5 6 6 5 5 6 7 8 10 11 10 9 11 10 10 9 8 7 8 4
2 2 5 5 2 5 0 7 6 10 7 5 2 5 6 6 5 5 6 6 6 7 8 10 10 11 11 6 5 5 3 1 4 4 5 6 8 9 10 11 11 11 11 10 10 9 8 8 5
3 5 4 5 4 3 4 8 3 7 5 2 5 6 7 5 5 5 5 6 7 7 9 10 11 11 9 7 4 4 4 5 5 5 6 8 9 9 10 11 11 11 12 12 12 11 8 8 4
Wind_Direction
55 37 85 45 55 62 251 254 263 273 275 163 219 193 225 226 170 208 313 177 139 146 149 150 153 155 155 156 145 142 139 138 144 135 128 126 127 126 127 126 147 150 153 153 146 130 123 95 86
57 117 50 84 110 154 257 240 239 226 263 313 282 164 281 246 126 102 115 186 146 144 144 151 157 159 157 146 147 147 146 148 147 134 143 136 134 134 149 131 187 155 145 148 132 121 111 104 96
109 50 104 143 159 198 217 227 243 271 291 302 345 46 287 261 119 167 201 146 140 140 141 153 154 148 148 153 149 149 152 152 148 149 142 145 141 145 136 121 107 110 128 135 118 119 104 107 103
134 32 35 133 215 243 194 239 195 340 332 86 5 324 317 277 165 180 140 138 129 123 124 151 150 150 151 152 153 155 157 158 156 151 150 157 149 153 141 120 98 103 112 116 110 103 108 105 110
40 71 145 198 244 239 216 256 252 278 283 323 7 282 264 343 58 128 138 140 147 126 128 141 151 151 155 158 160 165 170 168 161 159 157 161 155 155 150 148 110 113 104 106 113 116 112 109 116
68 106 138 211 235 231 222 203 244 241 230 308 221 253 262 324 119 141 146 149 155 147 141 150 155 160 163 164 167 166 172 168 165 164 163 165 161 158 159 149 143 135 134 126 124 122 119 115 115
146 126 194 192 230 265 218 174 197 235 271 268 203 186 266 216 152 145 146 146 144 132 132 142 156 165 159 163 162 168 172 171 172 167 162 168 163 162 162 165 162 159 154 149 144 141 134 124 111
128 124 162 215 192 247 196 181 171 172 247 128 164 210 242 207 156 123 116 119 127 134 144 149 152 148 151 155 163 167 179 176 173 164 156 146 145 159 163 162 168 165 160 155 155 153 140 115 99
137 128 202 200 172 211 157 178 185 151 257 284 200 193 309 134 136 126 131 130 145 152 165 162 161 160 158 155 170 167 176 169 187 149 138 134 138 152 148 147 166 156 158 159 158 151 124 93 75
165 194 208 199 182 197 161 177 208 59 14 261 318 0 60 146 160 160 169 173 177 184 185 179 166 164 157 161 154 153 161 152 144 139 141 137 146 149 145 153 157 156 159 159 161 143 108 91 90
187 223 182 231 189 155 158 222 174 134 279 226 34 310 91 170 177 174 180 183 185 184 189 189 181 163 159 161 150 146 150 145 150 153 148 150 145 149 139 140 149 134 137 101 86 85 93 122 106
184 206 225 239 172 98 175 112 302 192 225 172 139 249 102 178 198 192 186 185 187 192 197 193 191 174 168 148 157 161 157 159 161 170 161 152 149 159 159 165 170 157 136 138 117 103 94 99 104
211 180 207 235 270 247 255 234 223 238 252 261 277 163 91 91 222 229 208 191 192 198 199 201 194 184 179 166 160 160 176 176 175 171 170 156 162 169 162 178 169 168 137 147 138 117 111 114 120
201 201 244 236 239 248 210 233 159 253 239 250 275 263 218 220 234 223 210 198 198 199 206 201 196 187 177 185 181 184 184 180 169 172 179 175 170 172 178 173 180 175 171 166 156 143 136 129 123
129 135 219 244 194 236 178 260 221 226 235 260 234 252 257 225 200 238 226 216 201 208 194 199 191 186 182 191 188 188 185 178 188 186 183 181 181 181 180 175 181 182 174 157 124 110 112 110 87
198 35 169 239 193 230 142 252 280 224 213 238 246 225 248 263 234 208 229 239 209 211 202 193 194 194 191 195 194 189 185 182 187 188 186 193 187 181 181 177 189 168 165 155 147 148 122 122 145
188 188 186 307 195 180 191 144 261 325 215 263 261 241 217 245 263 262 229 214 232 212 207 203 199 199 195 200 195 195 188 194 184 192 191 196 195 188 183 183 189 163 161 161 155 136 134 151 142
181 162 158 191 205 212 216 281 284 288 222 240 272 274 254 226 246 247 239 231 224 231 214 208 206 204 195 187 193 194 194 201 193 200 198 193 201 193 186 187 175 165 154 153 155 142 87 134 146
132 162 164 190 140 198 229 251 272 269 276 235 250 261 262 245 253 228 213 219 208 217 230 219 193 210 182 182 187 200 208 202 203 207 199 193 192 183 191 190 170 166 172 176 169 129 143 117 157
149 141 191 57 73 149 354 287 266 248 238 220 232 246 247 248 256 250 259 212 224 219 206 221 215 212 196 196 202 199 207 214 208 202 206 192 186 179 186 184 186 182 160 154 168 153 132 111 182
126 145 160 135 112 72 343 287 279 313 252 260 247 260 282 259 269 266 253 251 228 236 219 212 220 217 204 203 192 107 114 82 127 195 209 202 175 184 188 186 181 183 178 178 180 159 139 137 207
138 152 117 125 102 213 7 287 294 313 327 4 353 10 342 317 312 300 280 277 269 252 259 213 211 222 218 203 195 201 206 209 209 206 209 188 180 188 192 192 179 180 179 175 169 146 150 146 154
179 121 112 95 97 60 312 104 269 316 52 16 4 14 17 11 39 41 27 7 359 351 313 292 229 237 239 210 194 200 210 213 201 185 197 163 173 180 185 184 178 167 171 167 166 164 169 164 144
143 98 61 60 86 46 240 167 284 115 66 63 348 4 12 5 20 40 36 33 28 23 26 15 349 250 242 232 218 207 210 192 175 172 176 183 173 177 183 173 177 167 162 173 171 170 174 170 146
95 82 33 15 16 213 34 132 248 300 298 154 82 12 358 3 18 17 18 14 10 14 11 6 9 6 348 255 239 222 221 199 199 195 193 174 183 179 189 172 171 172 164 160 155 159 162 157 153
46 125 145 190 177 211 123 231 273 303 36 108 3 347 359 12 9 15 8 3 358 355 357 0 353 341 347 328 275 249 231 206 210 200 201 197 202 195 165 169 160 152 146 146 146 142 132 133 129
201 71 146 103 7 52 234 292 349 327 46 28 19 25 7 358 1 1 353 357 351 350 347 341 332 310 302 291 293 271 236 204 204 194 172 160 138 140 161 163 154 153 152 147 142 145 140 131 125
118 147 72 7 121 252 283 273 212 217 197 93 33 359 327 340 349 343 344 347 347 341 332 332 324 305 298 269 250 258 247 218 188 158 166 152 139 143 145 145 150 143 145 135 130 123 120 118 114
102 51 55 105 105 154 320 267 212 191 184 126 51 315 311 316 323 336 343 349 351 339 340 327 326 318 303 287 256 237 232 155 125 127 122 125 123 137 140 141 143 142 134 124 113 109 110 105 111
135 164 140 125 229 73 132 275 321 169 180 333 314 285 286 278 328 346 356 4 357 339 339 330 324 314 291 276 237 160 127 119 106 108 122 127 128 127 130 129 125 125 117 111 109 103 96 109 112